DELTA 1 DEB, 10650

Orbit data source: Space-Track

DELTA 1 DEB, 10650 is space debris in LEO originally from a launch on Thu, 29 Jul 1976 UTC launched from the Air Force Western Test Range (AFWTR). Debris objects in space refer to the collection of defunct objects orbiting the Earth. Examples of debris include non-operational satellites, rocket bodies, and fragments generated from explosions, collisions, or faulty payload assembly.

Loading next visibility...
Identifier
10650, 1976-077L
Orbit
LEO
Country
Flag of USUS
Related business
Manufacturer
Unknown
Mission
Spacecraft
Bus & Motor
Unknown
Mass
Unknown
Launch date (UTC)
1976-07-29 (50 years ago)
Launch vehicle
Unknown
Launch site
Air Force Western Test Range (AFWTR)
Object type
Payload
Rocket body
Debris
Shape & HBR
Unknown shape, 0.1 m
Radar Cross Section
Medium (>0.1 m² and <1 m²)

Expand to show TLE details & history
Last TLE update: 1 day ago

TLE from 1 day ago
0 DELTA 1 DEB
1 10650U 76077L   26103.55879894 -.00000138  00000-0 -17090-2 0  9999
2 10650 102.0867 204.7700 0438287 117.3973 266.4117 11.57495283103647
Epoch: 2026-04-13T13:24Z
TLE epoch observation values (Epoch: 2026-04-13T13:24:40.228Z)
Latitude
18.38453°
Longitude
157.79257°
Altitude
1,917.265 km
Speed
6.918 km/s
True Right ascension
13h 22m 49s
True Declination
18° 17' 46"
Sunlit
Object was in full shadow at epoch
Visualization orbit readout
Latitude
Unknown
Longitude
Unknown
Altitude
Unknown
Speed
Unknown
Apparent Right ascension
Unknown
Apparent Declination
Unknown
Sunlit
N/A
Visualization observer readout
Local Sidereal Time
03:32:26
Azimuth
Unknown
Elevation
Unknown
Doppler factor
Unknown
Orbital elements
Apogee altitude
2,236.354 km
Perigee altitude
1,512.937 km
Semi-major axis
8,252.783 km
Eccentricity
0.04383
Inclination
102.0867°
RAAN
204.77°
Arg. of periapsis
117.3973°
True anomaly
261.42259°
Mean anomaly
266.4117°
Eccentric anomaly
263.91465°
Mean motion
2.89496 °/min
Orbital period
124.35 mins
BSTAR
-0.001709
Loading maneuver chart data...
Computing Atmospheric mass density...
Loading historical data...
Loading historical data...
Loading historical data...
Loading historical data...
Loading historical data...
Loading historical data...
Loading historical data...

Documentation

Showing up to 5 results
|